リニア彗星

309P/LINEAR (2015)

English version
Home page
Updated on June 11, 2016

---------------------------------------------------------------------

・ プロフィール

符号 309P/2014 Q4
検出日 2014年8月22日
検出光度 19.9等
検出者 K. Sarneczky (Szeged, Hungary)

・ 写真集

・ 軌道要素

Epoch 2015 Feb. 27.0 TT = JDT 2457080.5
T 2015 Feb. 16.51359 TT                                 MPCW
q   1.7404079            (2000.0)            P               Q
n   0.10535549     Peri.   50.97430     +0.47136625     -0.87990558
a   4.4398122      Node    11.37094     +0.68593516     +0.32312127
e   0.6079997      Incl.   17.66648     +0.55435262     +0.34836591
P   9.36
From 347 observations 2005 Aug. 31-2015 Mar. 23, mean residual 0".5.

・ 光度変化

        m1 = 14.0 + 5 logΔ + 10.0 log r(t - 60)

---------------------------------------------------------------------

軌道要素はM.P.E.C. 2015-K139に掲載されたものです。
光度グラフはComet for Windowsで作成したものです。

---------------------------------------------------------------------

Copyright(C) Seiichi Yoshida (comet@aerith.net). All rights reserved.